Content
SEND FEEDBACK

Daily
Averages
Monthly
Summary
United States of America

STATEN ISLAND, NEW YORK


Home > North America > United States > New York
Elevation: 152 feet     Latitude: 40 35N     Longitude: 074 09W

WEATHER
 
SELECT A DAY
Number of Records: 189,550;   Date Range: 1/1/95 - 7/23/14
 
SHARE

PRINT THIS DATA

[ ← Previous Day ]
WEATHER ALMANAC - JANUARY 12, 2013
[ Next Day → ]
[ °C ]   °F
Weather ElementAverageHighLow
Temperature45.9 °F48.2 °F (1:51 pm)44.1 °F (12:51 am)
Dewpoint44.4 °F45 °F (10:51 am)43 °F (12:51 am)
Humidity94.6 %100 % (2:51 am)87 % (1:51 pm)
Barometer30.13 in30.17 in (5:51 pm)30.07 in (4:51 am)
Wind Speed4.8 mph10.4 mph (7:51 am)
Weather ElementAverage
Visibility3.9 mi
Wind DirectionENE (72.7 °)

Weather ElementTotal
Precipitation0.03 in
Heating Degree Days18.9 (Base 65)
Averaged from 30 records on January 12, 2013
WEATHER CONDITIONS BREAKOUT
WIND DIRECTION BREAKOUT
WEATHER BY HOUR - JANUARY 12, 2013
[ °C ]   °F
Local TimeTemperatureDewpointHumidityBarometerVisibilityWind DirectionWind SpeedGust SpeedPrecipitationEventsConditions
12:51 AM44.1 °F43.0 °F96 %30.09 in1.5 miNorth (360°)5.8 mph0.01 inLight Drizzle
1:51 AM44.1 °F43.0 °F96 %30.09 in1.0 miNNW (340°)9.2 mph0.01 inLight Drizzle
2:51 AM44.1 °F44.1 °F100 %30.10 in1.5 miNorth (360°)6.9 mph0.01 inLight Drizzle
3:08 AM44.6 °F44.6 °F100 %30.10 in4.0 miNNE (20°)9.2 mph0.00 inOvercast
3:51 AM45.0 °F44.1 °F97 %30.08 in6.0 miNNE (20°)9.2 mph0.00 inOvercast
4:20 AM44.6 °F44.6 °F100 %30.08 in6.0 miNorth (10°)8.1 mphOvercast
4:51 AM44.6 °F44.6 °F100 %30.07 in5.0 miNNE (20°)6.9 mphOvercast
5:27 AM44.6 °F44.6 °F100 %30.09 in6.0 miNorth (10°)8.1 mphOvercast
5:51 AM45.0 °F44.1 °F97 %30.12 in5.0 miNorth (360°)9.2 mphOvercast
6:51 AM44.1 °F44.1 °F100 %30.11 in6.0 miNNE (20°)8.1 mphOvercast
7:51 AM45.0 °F44.1 °F97 %30.14 in6.0 miNorth (10°)10.4 mphOvercast
8:51 AM45.0 °F44.1 °F97 %30.15 in7.0 miNorth (10°)8.1 mphOvercast
9:51 AM46.0 °F44.1 °F93 %30.15 in6.0 miNorth (10°)6.9 mphOvercast
10:51 AM46.9 °F45.0 °F93 %30.16 in6.0 miNorth (360°)4.6 mphOvercast
11:51 AM48.0 °F45.0 °F89 %30.14 in6.0 miNE (40°)5.8 mphOvercast
12:51 PM46.9 °F45.0 °F93 %30.14 in6.0 miNNE (30°)4.6 mphOvercast
1:51 PM48.2 °F44.6 °F87 %30.15 in6.0 miNNE (30°)3.5 mphOvercast
2:51 PM48.0 °F45.0 °F89 %30.13 in5.0 miNE (50°)5.8 mphOvercast
3:31 PM48.2 °F44.6 °F87 %30.14 in2.5 miNE (40°)3.5 mphOvercast
3:51 PM46.9 °F45.0 °F93 %30.14 in2.5 miCalmOvercast
4:51 PM46.9 °F45.0 °F93 %30.15 in2.5 miNE (50°)4.6 mphOvercast
5:51 PM46.9 °F45.0 °F93 %30.17 in2.5 miNNE (30°)6.9 mphOvercast
6:51 PM46.9 °F45.0 °F93 %30.15 in3.0 miCalmOvercast
7:51 PM46.0 °F44.1 °F93 %30.17 in3.0 miCalmOvercast
8:51 PM46.0 °F44.1 °F93 %30.15 in3.0 miCalmOvercast
9:51 PM46.0 °F44.1 °F93 %30.13 in3.0 miCalmOvercast
10:51 PM46.0 °F44.1 °F93 %30.14 in3.0 miCalmOvercast
11:20 PM46.4 °F44.6 °F93 %30.15 in2.0 miCalmOvercast
11:44 PM46.4 °F44.6 °F93 %30.15 in0.5 miCalmFogFog
11:51 PM46.0 °F45.0 °F96 %30.15 in0.5 miCalmFogFog
Hourly data recorded from KEWR, located miles away from Staten Island, New York







STORIES FROM OUR PARTNERS